星链-34535 (STARLINK-34535)

导读 | 豆包AI

STARLINK-3455卫星由美国于2025年6月28日发射,是太空探索技术公司(SpaceX)星链(Starlink)星座组网的卫星之一。星链项目旨在通过低轨卫星星座为全球提供高速互联网接入服务,该卫星入轨后将进一步扩充星链星座规模,提升全球网络覆盖能力与服务稳定性。

基本信息
目录编号:
64698
目录名称:
STARLINK-34535
国际标识:
2025-142C
轨道中心:
EARTH
卫星名称:
星链-34535
卫星全名:
星链-34535 (STARLINK-34535)
卫星状态:
在轨 (已飞行259 天)
发射日期:
2025-06-28 UTC
国别 :
美国 (US)
星等 :
--
轨道信息
数据来源 国际轨道数据
星历时间: 2026-03-14T06:28:58+0800
17小时前
查看轨道信息
半长轴: 6950.145km
偏心率: 0.0002984
轨道倾角: 70.001°
近地点辐角 267.318°
升交点赤经 303.855°
平近点角 92.763°
近地点: 569.934km
远地点: 574.082km
周期: 96.106分钟
每日圈数: 14.983458
详细信息
固有亮度:
5
最大亮度:
2.5
卫星平台:
Starlink V1.0
覆盖范围:
全球
运营商:
太空探索技术公司
运营商所在国:
美国
制造商(研发单位):
太空探索技术公司
制造商所在国:
美国
使用方式:
暂无
卫星简介
Starlink 计划是 SpaceX 推出的全球卫星互联网项目,通过发射低轨道卫星,为全球尤其是偏远地区提供高速、低延迟的互联网服务。自 2019 年起,Starlink 已部署数千颗卫星,旨在缩小全球数字鸿沟,推动互联网普及。该项目还为军事、航空等行业提供通信支持,带来广泛经济效益。
2D轨道图
3D轨道图
轨道高度分析图
轨道倾角分析图
轨道综合分析图
查看轨道综合分析图